Weather History for KLWD - March, 2012

Change the Weather History Date:

Thursday, March 15, 2012

  Actual Average Record
Temperature  
Mean Temperature 70 °F 40 °F  
Max Temperature 80 °F 50 °F - ()
Min Temperature 59 °F 30 °F - ()
Degree Days  
Heating Degree Days 0 25  
Month to date heating degree days 273 427  
Since 1 July heating degree days 4401 5144  
Cooling Degree Days 5 0  
Month to date cooling degree days 8 0  
Year to date cooling degree days 8 0  
Growing Degree Days 20 (Base 50)    
Moisture  
Dew Point 60 °F    
Average Humidity 71    
Maximum Humidity 93    
Minimum Humidity 48    
Precipitation  
Precipitation 0.00 in 0.07 in - ()
Month to date precipitation 0.58 0.93  
Year to date precipitation 2.85  
Sea Level Pressure  
Sea Level Pressure 29.97 in    
Wind  
Wind Speed 9 mph (SW)    
Max Wind Speed 20 mph    
Max Gust Speed 24 mph    
Visibility 10 miles    
Events      
T = Trace of Precipitation, MM = Missing Value Source: NWS Daily Summary

Daily Weather History Graph

Daily Weather History Graph

Search for Another Location

Airport or City:

Trip Planner

Search our weather history database for the weather conditions in past years. The results will help you decide how hot, cold, wet, or windy it might be!

Date:

Astronomy

Mar. 15, 2012 Rise Set
Actual Time 7:26 AM CDT 7:22 PM CDT
Civil Twilight 6:59 AM CDT 7:50 PM CDT
Nautical Twilight 6:27 AM CDT 8:22 PM CDT
Astronomical Twilight 5:55 AM CDT 8:54 PM CDT
Moon 2:56 AM CDT (3/15) 12:39 PM CDT (3/15)
Length of Visible Light 12h 51m
Length of Day
11h 56m
Last Quarter, 43% of the Moon is Illuminated
Mar 15
Last Quarter
Mar 22
New
Mar 30
First Quarter
Apr 6
Full
Apr 13
Last Quarter

Hourly Weather History & Observations

Time (CDT) Temp. Dew Point Humidity Pressure Visibility Wind Dir Wind Speed Gust Speed Precip Events Conditions
12:53 AM 64.0 °F 60.1 °F 87% 29.92 in 10.0 mi SSW 13.8 mph - N/A   Clear
1:53 AM 64.0 °F 60.1 °F 87% 29.94 in 10.0 mi SSW 11.5 mph - N/A   Clear
2:53 AM 62.1 °F 59.0 °F 90% 29.95 in 10.0 mi SSW 11.5 mph - N/A   Clear
3:37 AM 62.6 °F 59.0 °F 88% 29.97 in 10.0 mi SSW 11.5 mph - N/A   Overcast
3:53 AM 63.0 °F 59.0 °F 87% 29.95 in 10.0 mi SW 11.5 mph - N/A   Overcast
4:53 AM 62.1 °F 59.0 °F 90% 29.95 in 10.0 mi SW 11.5 mph - N/A   Mostly Cloudy
5:02 AM 62.6 °F 59.0 °F 88% 29.97 in 10.0 mi SW 11.5 mph - N/A   Scattered Clouds
5:53 AM 61.0 °F 57.9 °F 90% 29.96 in 10.0 mi SW 10.4 mph - N/A   Clear
6:42 AM 60.8 °F 59.0 °F 94% 30.00 in 10.0 mi WSW 8.1 mph - N/A   Mostly Cloudy
6:53 AM 62.1 °F 59.0 °F 90% 29.99 in 10.0 mi SW 9.2 mph - N/A   Overcast
7:12 AM 62.6 °F 59.0 °F 88% 30.00 in 10.0 mi Variable 5.8 mph - N/A   Overcast
7:53 AM 63.0 °F 60.1 °F 90% 30.00 in 10.0 mi SSW 8.1 mph - N/A   Overcast
8:53 AM 62.1 °F 60.1 °F 93% 30.01 in 10.0 mi South 5.8 mph - N/A   Overcast
9:53 AM 63.0 °F 60.1 °F 90% 30.01 in 10.0 mi SSW 9.2 mph - N/A   Overcast
10:53 AM 66.9 °F 61.0 °F 81% 30.01 in 10.0 mi SSW 11.5 mph - N/A   Mostly Cloudy
11:10 AM 68.0 °F 60.8 °F 78% 30.03 in 10.0 mi SW 10.4 mph - N/A   Mostly Cloudy
11:48 AM 69.8 °F 60.8 °F 73% 30.02 in 10.0 mi SW 6.9 mph - N/A   Overcast
11:53 AM 70.0 °F 62.1 °F 76% 30.00 in 10.0 mi WSW 8.1 mph - N/A   Overcast
12:12 PM 71.6 °F 62.6 °F 73% 30.01 in 10.0 mi SSW 6.9 mph - N/A   Scattered Clouds
12:53 PM 73.9 °F 62.1 °F 66% 29.99 in 10.0 mi SW 8.1 mph - N/A   Partly Cloudy
1:13 PM 73.4 °F 60.8 °F 65% 30.00 in 10.0 mi SW 8.1 mph - N/A   Mostly Cloudy
1:41 PM 75.2 °F 60.8 °F 61% 30.00 in 10.0 mi SW 12.7 mph - N/A   Mostly Cloudy
1:53 PM 75.9 °F 61.0 °F 60% 29.97 in 10.0 mi WSW 6.9 mph - N/A   Mostly Cloudy
2:53 PM 75.9 °F 57.9 °F 54% 29.94 in 10.0 mi SSW 10.4 mph - N/A   Scattered Clouds
3:53 PM 79.0 °F 57.0 °F 47% 29.93 in 10.0 mi SSW 17.3 mph 24.2 mph N/A   Scattered Clouds
4:53 PM 79.0 °F 57.0 °F 47% 29.93 in 10.0 mi SW 16.1 mph - N/A   Scattered Clouds
5:53 PM 75.9 °F 57.9 °F 54% 29.92 in 10.0 mi SSW 9.2 mph - N/A   Clear
6:33 PM 75.2 °F 59.0 °F 57% 29.94 in 10.0 mi SW 6.9 mph - N/A   Scattered Clouds
6:53 PM 73.9 °F 59.0 °F 59% 29.93 in 10.0 mi SSW 8.1 mph - N/A   Scattered Clouds
7:53 PM 68.0 °F 59.0 °F 73% 29.94 in 10.0 mi SSW 8.1 mph - N/A   Clear
8:53 PM 68.0 °F 59.0 °F 73% 29.96 in 10.0 mi South 5.8 mph - N/A   Clear
9:53 PM 66.9 °F 59.0 °F 76% 29.98 in 10.0 mi South 5.8 mph - N/A   Mostly Cloudy
10:53 PM 64.9 °F 59.0 °F 81% 29.98 in 10.0 mi SSW 5.8 mph - N/A   Mostly Cloudy
11:53 PM 64.0 °F 59.0 °F 84% 29.97 in 10.0 mi South 6.9 mph - N/A   Scattered Clouds